Los Angeles, CA

7:47 AM PDT on May 26, 2017 (GMT -0700)
Los Angeles International

Weather History for KLAX - February, 2013

Change the Weather History Date:

Wednesday, February 20, 2013

  Actual Average Record
Temperature  
Mean Temperature 52 °F 57 °F  
Max Temperature 59 °F 64 °F 90 °F (1995)
Min Temperature 44 °F 50 °F 38 °F (1945)
Degree Days  
Heating Degree Days 13 8  
Month to date heating degree days 177 160  
Since 1 July heating degree days 799 864  
Cooling Degree Days 0 0  
Month to date cooling degree days 2 0  
Year to date cooling degree days 8 4  
Growing Degree Days 2 (Base 50)    
Moisture  
Dew Point 32 °F    
Average Humidity 48    
Maximum Humidity 66    
Minimum Humidity 30    
Precipitation  
Precipitation 0.00 in 0.13 in 1.90 in (1996)
Month to date precipitation 0.20 2.34  
Year to date precipitation 1.50 5.05  
Since 1 July precipitation 5.78  
Sea Level Pressure  
Sea Level Pressure 29.85 in    
Wind  
Wind Speed 14 mph (NW)    
Max Wind Speed 28 mph    
Max Gust Speed 32 mph    
Visibility 10 miles    
Events      
T = Trace of Precipitation, MM = Missing Value Source: NWS Daily Summary

Daily Weather History Graph

Daily Weather History Graph

Search for Another Location

Airport or City:

Trip Planner

Search our weather history database for the weather conditions in past years. The results will help you decide how hot, cold, wet, or windy it might be!

Date:

Astronomy

Feb. 20, 2013 Rise Set
Actual Time 6:32 AM PST 5:42 PM PST
Civil Twilight 6:07 AM PST 6:07 PM PST
Nautical Twilight 5:38 AM PST 6:37 PM PST
Astronomical Twilight 5:09 AM PST 7:06 PM PST
Moon 1:16 PM PST (2/20) 2:48 AM PST (2/20)
Length of Visible Light 12h 00m
Length of Day
11h 10m
Waxing Gibbous, 77% of the Moon is Illuminated
Feb 20
Waxing Gibbous
Feb 25
Full
Mar 4
Last Quarter
Mar 11
New
Mar 19
First Quarter

Hourly Weather History & Observations

Time (PST) Temp. Windchill Dew Point Humidity Pressure Visibility Wind Dir Wind Speed Gust Speed Precip Events Conditions
12:53 AM 48.9 °F - 35.1 °F 59% 29.72 in 10.0 mi West 23.0 mph 32.2 mph N/A   Scattered Clouds
1:53 AM 48.0 °F - 33.1 °F 56% 29.72 in 10.0 mi WNW 12.7 mph - N/A   Scattered Clouds
2:00 AM - - - N/A% - - North - - N/A   Unknown
2:53 AM 48.0 °F - 30.0 °F 50% 29.72 in 10.0 mi WNW 15.0 mph - N/A   Scattered Clouds
3:53 AM 46.0 °F 43.9 °F 30.0 °F 54% 29.73 in 10.0 mi North 4.6 mph - N/A   Scattered Clouds
4:53 AM 46.0 °F 41.4 °F 30.0 °F 54% 29.74 in 10.0 mi NNE 9.2 mph - N/A   Scattered Clouds
5:53 AM 44.1 °F 42.5 °F 30.0 °F 58% 29.75 in 10.0 mi NW 3.5 mph - N/A   Scattered Clouds
6:53 AM 45.0 °F 40.6 °F 28.9 °F 53% 29.78 in 10.0 mi NW 8.1 mph - N/A   Scattered Clouds
7:53 AM 46.9 °F - 27.0 °F 46% 29.81 in 10.0 mi WNW 8.1 mph - N/A   Scattered Clouds
8:53 AM 50.0 °F - 28.0 °F 43% 29.84 in 10.0 mi West 11.5 mph - N/A   Scattered Clouds
9:53 AM 52.0 °F - 27.0 °F 38% 29.84 in 10.0 mi West 16.1 mph - N/A   Scattered Clouds
10:53 AM 54.0 °F - 28.9 °F 38% 29.86 in 10.0 mi West 19.6 mph - N/A   Scattered Clouds
11:53 AM 55.9 °F - 34.0 °F 44% 29.87 in 10.0 mi West 25.3 mph - N/A   Scattered Clouds
12:53 PM 57.0 °F - 37.9 °F 49% 29.85 in 10.0 mi WSW 21.9 mph - N/A   Scattered Clouds
1:53 PM 57.9 °F - 37.0 °F 46% 29.84 in 10.0 mi West 25.3 mph - N/A   Partly Cloudy
2:53 PM 57.9 °F - 39.9 °F 51% 29.86 in 10.0 mi West 26.5 mph - N/A   Scattered Clouds
3:53 PM 57.0 °F - 41.0 °F 55% 29.87 in 10.0 mi West 21.9 mph - N/A   Partly Cloudy
4:53 PM 55.9 °F - 43.0 °F 62% 29.89 in 10.0 mi West 15.0 mph - N/A   Scattered Clouds
5:53 PM 55.9 °F - 44.1 °F 64% 29.91 in 10.0 mi WNW 9.2 mph - N/A   Scattered Clouds
6:53 PM 55.9 °F - 27.0 °F 33% 29.93 in 10.0 mi NNW 3.5 mph - N/A   Clear
7:53 PM 55.0 °F - 24.1 °F 30% 29.95 in 10.0 mi North 11.5 mph - N/A   Clear
8:53 PM 54.0 °F - 27.0 °F 35% 29.96 in 10.0 mi North 10.4 mph 21.9 mph N/A   Clear
9:53 PM 54.0 °F - 28.0 °F 37% 29.97 in 10.0 mi North 15.0 mph 20.7 mph N/A   Clear
10:53 PM 54.0 °F - 28.9 °F 38% 29.98 in 10.0 mi North 9.2 mph 18.4 mph N/A   Clear
11:53 PM 51.1 °F - 28.9 °F 43% 30.01 in 10.0 mi ENE 4.6 mph - N/A   Partly Cloudy